AirNav   Everest Fuels
 
 720 users online  

7PA7 Wayne Memorial Hospital Heliport
Honesdale, Pennsylvania, USA

GOING TO HONESDALE?


FAA INFORMATION EFFECTIVE 30 JANUARY 2020

Location

FAA Identifier: 7PA7
Lat/Long: 41-35-23.4100N 075-15-43.0000W
41-35.390167N 075-15.716667W
41.5898361,-75.2619444
(estimated)
Elevation: 982 ft. / 299 m (estimated)
From city: 1 mile N of HONESDALE, PA
Time zone: UTC -5 (UTC -4 during Daylight Saving Time)
Zip code: 18431

Heliport Operations

Heliport use: Private use. Permission required prior to landing
Activation date: 10/2016
Control tower: no
ARTCC: NEW YORK CENTER
FSS: WILLIAMSPORT FLIGHT SERVICE STATION
Attendance: 
Wind indicator: yes
Segmented circle: no

Nearby radio navigation aids

VOR radial/distance  VOR name  Freq  Var
LVZr055/27.0WILKES-BARRE VORTAC111.6010W
HNKr186/28.5HANCOCK VOR/DME116.8011W
HUOr301/32.0HUGUENOT VOR/DME116.1011W
DNYr212/37.8DELANCEY VOR/DME112.1011W
STWr345/39.8STILLWATER VOR/DME109.6011W

Heliport Services

Runway Information

Helipad H1

Dimensions: 44 x 44 ft. / 13 x 13 m
Surface: concrete
Latitude: 41-35.390167N
Longitude: 075-15.716667W
Elevation: 982.0 ft.
Traffic pattern: leftleft

Heliport Ownership and Management from official FAA records

Ownership: Privately-owned
Owner: WAYNE MEMORIAL HOSPITAL
601 PARK ST.
HONESDALE, PA 18431
Phone 570 253 8169
Manager: WAYNE MEMORIAL HOSPITAL
601 PARK ST
HONESDALE, PA 18431
Phone 570 253 8169

Additional Remarks

FOR CD CTC WILKES-BARRE APCH AT 570-655-2084.

Instrument Procedures

There are no published instrument procedures at 7PA7.

Some nearby airports with instrument procedures:

N30 - Cherry Ridge Airport (4 nm S)
70N - Spring Hill Airport (16 nm SW)
KMSV - Sullivan County International Airport (22 nm E)
9N3 - Seamans Field Airport (22 nm W)
KAVP - Wilkes-Barre/Scranton International Airport (26 nm SW)
 
Loc | Ops | Rwys | IFR | FBO | Links
Com | Nav | Svcs | Stats | Notes
Aerial photo
No photo
 
Airport distance calculator
Flying to Wayne Memorial Hospital Heliport? Find the distance to fly.

From to 7PA7

Sunrise and sunset
Times for 23-Feb-2020
 Local
(UTC-5)
 Zulu
(UTC)
Morning civil twilight06:1811:18
Sunrise06:4611:46
Sunset17:4322:43
Evening civil twilight18:1123:11

Current date and time
Zulu (UTC)  23-Feb-2020 13:12:17
Local (UTC-5)  23-Feb-2020 08:12:17
 
METAR
KMSV 
22nm E 
231256Z AUTO 28004KT 10SM CLR M02/M09 A3017 RMK AO2 SLP233 T10221089 FZRANO
KAVP 
26nm SW 
231254Z 00000KT 10SM CLR M01/M09 A3019 RMK AO2 SLP232 T10111094
KMPO 
28nm S 
231253Z AUTO 26004KT 10SM CLR M02/M12 A3015 RMK AO2 SLP232 T10171122
KFWN 
37nm SE 
231253Z AUTO 00000KT 10SM CLR M04/M08 A3021 RMK AO2 SLP235 T10441083
K12N 
42nm SE 
231254Z AUTO 00000KT M04/M06 A3022 RMK AO1 SLP247 T10391061
KMGJ 
45nm E 
SuperAWOS
231254Z AUTO 21004KT 10SM CLR M04/M07 A3020 RMK AO2 SLP231 T10391072
TAF
KAVP 
26nm SW 
231120Z 2312/2412 VRB04KT P6SM SKC
NOTAMs
Click for the latest NOTAMs
NOTAMs are issued by the DoD/FAA and will open in a separate window not controlled by AirNav.

 

 
 

Would you like to see your business listed on this page?

 If your business provides an interesting product or service to pilots, flight crews, aircraft, or users of the Wayne Memorial Hospital Heliport, you should consider listing it here.  To start the listing process, click on the button below
 
Add a business
 

Other Pages about Wayne Memorial Hospital Heliport

Update a link
 
Copyright © AirNav, LLC. All rights reserved. Privacy Policy  Contact